Olive Branch, MS

12:37 AM CST on January 19, 2018 (GMT -0600)
Olive Branch

Weather History for KOLV - June, 2014

Change the Weather History Date:

Sunday, June 8, 2014

  Actual Average (KMEM) Record (KMEM)
Temperature  
Mean Temperature 73 °F -  
Max Temperature 80 °F 87 °F 97 °F (1953)
Min Temperature 66 °F 68 °F 54 °F (1930)
Cooling Degree Days 8    
Growing Degree Days 23 (Base 50)    
Moisture  
Dew Point 71 °F    
Average Humidity 90    
Maximum Humidity 100    
Minimum Humidity 70    
Precipitation  
Precipitation 0.00 in - - ()
Sea Level Pressure  
Sea Level Pressure 29.93 in    
Wind  
Wind Speed 6 mph (NNW)    
Max Wind Speed 16 mph    
Max Gust Speed 22 mph    
Visibility 9 miles    
Events      
Averages and records for this station are not official NWS values.
T = Trace of Precipitation, MM = Missing Value Source: NWS Daily Summary

Daily Weather History Graph

Daily Weather History Graph

Search for Another Location

Airport or City:

Trip Planner

Search our weather history database for the weather conditions in past years. The results will help you decide how hot, cold, wet, or windy it might be!

Date:

Astronomy

Jun. 08, 2014 Rise Set
Actual Time 5:44 AM CDT 8:11 PM CDT
Civil Twilight 5:15 AM CDT 8:41 PM CDT
Nautical Twilight 4:39 AM CDT 9:17 PM CDT
Astronomical Twilight 3:59 AM CDT 9:57 PM CDT
Moon 3:39 PM CDT (6/8) 2:27 AM CDT (6/8)
Length of Visible Light 15h 25m
Length of Day
14h 26m
Waxing Gibbous, 77% of the Moon is Illuminated
Jun 8
Waxing Gibbous
Jun 12
Full
Jun 19
Last Quarter
Jun 27
New
Jul 5
First Quarter

Hourly Weather History & Observations

Time (CDT) Temp. Heat Index Dew Point Humidity Pressure Visibility Wind Dir Wind Speed Gust Speed Precip Events Conditions
12:15 AM 66.2 °F - - N/A% 29.92 in 10.0 mi Calm Calm - 0.00 in   Scattered Clouds
12:35 AM 66.2 °F - - N/A% 29.92 in 9.0 mi SSW 10.4 mph - 0.00 in   Clear
12:55 AM 66.2 °F - - N/A% 29.92 in 9.0 mi SSW 9.2 mph - 0.00 in   Clear
1:15 AM 66.2 °F - - N/A% 29.92 in 10.0 mi SSW 8.1 mph - 0.00 in   Clear
1:35 AM 66.2 °F - - N/A% 29.91 in 10.0 mi South 5.8 mph - N/A   Clear
1:55 AM 66.2 °F - - N/A% 29.91 in 9.0 mi SSW 6.9 mph - 0.00 in   Clear
2:15 AM 66.2 °F - - N/A% 29.91 in 8.0 mi SSW 5.8 mph - 0.00 in   Clear
2:35 AM 66.2 °F - - N/A% 29.90 in 8.0 mi SSW 4.6 mph - 0.00 in   Clear
2:55 AM 66.2 °F - - N/A% 29.90 in 10.0 mi SSW 6.9 mph - 0.00 in   Clear
3:15 AM 66.2 °F - - N/A% 29.90 in 8.0 mi SW 5.8 mph - 0.00 in   Partly Cloudy
3:35 AM 66.2 °F - - N/A% 29.90 in 10.0 mi SW 6.9 mph - 0.00 in   Mostly Cloudy
3:55 AM 66.2 °F - - N/A% 29.90 in 9.0 mi SW 5.8 mph - 0.00 in   Scattered Clouds
4:15 AM 66.2 °F - - N/A% 29.91 in 10.0 mi SW 4.6 mph - 0.00 in   Scattered Clouds
4:35 AM 66.2 °F - - N/A% 29.92 in 10.0 mi WSW 4.6 mph - 0.00 in   Scattered Clouds
4:55 AM 66.2 °F - - N/A% 29.93 in 10.0 mi WSW 4.6 mph - 0.00 in   Overcast
5:15 AM 68.0 °F - - N/A% 29.94 in 10.0 mi WSW 3.5 mph - 0.00 in   Overcast
5:35 AM 66.2 °F - - N/A% 29.94 in 10.0 mi Calm Calm - 0.00 in   Scattered Clouds
5:55 AM 66.2 °F - - N/A% 29.94 in 10.0 mi Calm Calm - 0.00 in   Clear
6:15 AM 66.2 °F - - N/A% 29.94 in 10.0 mi Calm Calm - 0.00 in   Clear
6:35 AM 68.0 °F - - N/A% 29.95 in 10.0 mi Calm Calm - 0.00 in   Partly Cloudy
6:50 AM 69.8 °F - 69.8 °F 100% 29.95 in 10.0 mi Calm Calm - N/A   Mostly Cloudy
7:50 AM 71.6 °F - 71.6 °F 100% 29.97 in 10.0 mi North 8.1 mph - N/A   Overcast
8:50 AM 71.6 °F - 71.6 °F 100% 29.99 in 10.0 mi North 9.2 mph - N/A   Overcast
9:50 AM 71.6 °F - 71.6 °F 100% 30.00 in 10.0 mi North 8.1 mph - N/A   Overcast
10:50 AM 73.4 °F - 69.8 °F 88% 30.06 in 10.0 mi NNW 6.9 mph - N/A   Overcast
11:50 AM 75.2 °F - 69.8 °F 83% 30.02 in 10.0 mi NNW 6.9 mph - N/A   Mostly Cloudy
12:50 PM 75.2 °F - 69.8 °F 83% 29.99 in 10.0 mi NNE 6.9 mph - N/A   Mostly Cloudy
1:50 PM 77.0 °F - 71.6 °F 83% 29.97 in 10.0 mi ENE 9.2 mph - N/A   Mostly Cloudy
2:50 PM 78.8 °F - 69.8 °F 74% 29.97 in 10.0 mi NE 9.2 mph - N/A   Mostly Cloudy
3:50 PM 80.6 °F 83.9 °F 69.8 °F 70% 29.96 in 10.0 mi NNE 5.8 mph - N/A   Mostly Cloudy
4:50 PM 80.6 °F 83.9 °F 69.8 °F 70% 29.93 in 10.0 mi NNW 5.8 mph - N/A   Scattered Clouds
5:50 PM 78.8 °F - 69.8 °F 74% 29.92 in 10.0 mi NNE 5.8 mph - N/A   Mostly Cloudy
6:50 PM 78.8 °F - 69.8 °F 74% 29.88 in 10.0 mi ENE 6.9 mph - N/A   Mostly Cloudy
7:50 PM 75.2 °F - 71.6 °F 89% 29.87 in 10.0 mi ENE 4.6 mph - N/A   Mostly Cloudy
8:55 PM 73.4 °F - 71.6 °F 94% 29.90 in 7.0 mi Calm Calm - 0.00 in   Clear
9:15 PM 73.4 °F - 71.6 °F 94% 29.88 in 10.0 mi East 6.9 mph - 0.00 in   Clear
9:35 PM 73.4 °F - 71.6 °F 94% 29.89 in 8.0 mi Calm Calm - 0.00 in   Scattered Clouds
9:55 PM 73.4 °F - 71.6 °F 94% 29.90 in 8.0 mi Calm Calm - 0.00 in   Mostly Cloudy
10:15 PM 71.6 °F - 71.6 °F 100% 29.91 in 6.0 mi North 11.5 mph 16.1 mph 0.00 in   Overcast
10:35 PM 71.6 °F - 71.6 °F 100% 29.89 in 10.0 mi NNE 12.7 mph - 0.00 in   Mostly Cloudy
10:55 PM 69.8 °F - 69.8 °F 100% 29.90 in 10.0 mi NE 9.2 mph - N/A   Overcast
11:15 PM 69.8 °F - 69.8 °F 100% 29.88 in 10.0 mi NE 12.7 mph - 0.00 in   Overcast
11:35 PM 68.0 °F - 68.0 °F 100% 29.89 in 1.5 mi North 15.0 mph - 0.00 in   Overcast
11:55 PM 66.2 °F - - N/A% 29.90 in 0.2 mi North 16.1 mph 21.9 mph 0.00 in   Overcast